Year,Month,Day,Hour,Minute,Value (Times are PST for temperature in C)
2020,08,01,00,00,16.40
2020,08,01,00,01,16.40
2020,08,01,00,02,16.40
2020,08,01,00,03,16.30
2020,08,01,00,04,16.30
2020,08,01,00,05,16.30
2020,08,01,00,06,16.30
2020,08,01,00,07,16.30
2020,08,01,00,08,16.20
2020,08,01,00,09,16.20
2020,08,01,00,10,16.20
2020,08,01,00,11,16.20
2020,08,01,00,12,16.20
2020,08,01,00,13,16.20
2020,08,01,00,14,16.20
2020,08,01,00,15,16.20
2020,08,01,00,16,16.10
2020,08,01,00,17,16.10
2020,08,01,00,18,16.10
2020,08,01,00,19,16.10
2020,08,01,00,20,16.00
2020,08,01,00,21,16.00
2020,08,01,00,22,16.00
2020,08,01,00,23,16.00
2020,08,01,00,24,15.90
2020,08,01,00,25,15.90
2020,08,01,00,26,15.90
2020,08,01,00,27,15.90
2020,08,01,00,28,15.90
2020,08,01,00,29,15.90
2020,08,01,00,30,15.80
2020,08,01,00,31,15.80
2020,08,01,00,32,15.80
2020,08,01,00,33,15.80
2020,08,01,00,34,15.80
2020,08,01,00,35,15.80
2020,08,01,00,36,15.70
2020,08,01,00,37,15.70
2020,08,01,00,38,15.70
2020,08,01,00,39,15.70
2020,08,01,00,40,15.70
2020,08,01,00,41,15.70
2020,08,01,00,42,15.70
2020,08,01,00,43,15.70
2020,08,01,00,44,15.70
2020,08,01,00,45,15.70
2020,08,01,00,46,15.70
2020,08,01,00,47,15.70
2020,08,01,00,48,15.70
2020,08,01,00,49,15.70
2020,08,01,00,50,15.70
2020,08,01,00,51,15.70
2020,08,01,00,52,15.70
2020,08,01,00,53,15.60
2020,08,01,00,54,15.70
2020,08,01,00,55,15.70
2020,08,01,00,56,15.70
2020,08,01,00,57,15.70
2020,08,01,00,58,15.80
2020,08,01,00,59,15.80
2020,08,01,01,00,15.80
2020,08,01,01,01,15.80
2020,08,01,01,02,15.80
2020,08,01,01,03,15.80
2020,08,01,01,04,15.80
2020,08,01,01,05,15.80
2020,08,01,01,06,15.80
2020,08,01,01,07,15.80
2020,08,01,01,08,15.80
2020,08,01,01,09,15.80
2020,08,01,01,10,15.80
2020,08,01,01,11,15.80
2020,08,01,01,12,15.80
2020,08,01,01,13,15.80
2020,08,01,01,14,15.80
2020,08,01,01,15,15.80
2020,08,01,01,16,15.80
2020,08,01,01,17,15.80
2020,08,01,01,18,15.80
2020,08,01,01,19,15.80
2020,08,01,01,20,15.80
2020,08,01,01,21,15.80
2020,08,01,01,22,15.70
2020,08,01,01,23,15.70
2020,08,01,01,24,15.60
2020,08,01,01,25,15.60
2020,08,01,01,26,15.60
2020,08,01,01,27,15.60
2020,08,01,01,28,15.60
2020,08,01,01,29,15.60
2020,08,01,01,30,15.60
2020,08,01,01,31,15.70
2020,08,01,01,32,15.70
2020,08,01,01,33,15.80
2020,08,01,01,34,15.80
2020,08,01,01,35,15.80
2020,08,01,01,36,15.80
2020,08,01,01,37,15.70
2020,08,01,01,38,15.70
2020,08,01,01,39,15.70
2020,08,01,01,40,15.70
2020,08,01,01,41,15.60
2020,08,01,01,42,15.60
2020,08,01,01,43,15.60
2020,08,01,01,44,15.50
2020,08,01,01,45,15.50
2020,08,01,01,46,15.40
2020,08,01,01,47,15.40
2020,08,01,01,48,15.40
2020,08,01,01,49,15.40
2020,08,01,01,50,15.40
2020,08,01,01,51,15.40
2020,08,01,01,52,15.40
2020,08,01,01,53,15.30
2020,08,01,01,54,15.30
2020,08,01,01,55,15.30
2020,08,01,01,56,15.30
2020,08,01,01,57,15.40
2020,08,01,01,58,15.40
2020,08,01,01,59,15.40
2020,08,01,02,00,15.40
2020,08,01,02,01,15.40
2020,08,01,02,02,15.50
2020,08,01,02,03,15.60
2020,08,01,02,04,15.60
2020,08,01,02,05,15.70
2020,08,01,02,06,15.70
2020,08,01,02,07,15.70
2020,08,01,02,08,15.70
2020,08,01,02,09,15.70
2020,08,01,02,10,15.80
2020,08,01,02,11,15.80
2020,08,01,02,12,15.80
2020,08,01,02,13,15.90
2020,08,01,02,14,15.90
2020,08,01,02,15,15.90
2020,08,01,02,16,15.90
2020,08,01,02,17,15.90
2020,08,01,02,18,16.00
2020,08,01,02,19,15.90
2020,08,01,02,20,16.00
2020,08,01,02,21,15.90
2020,08,01,02,22,15.90
2020,08,01,02,23,15.90
2020,08,01,02,24,15.90
2020,08,01,02,25,15.90
2020,08,01,02,26,15.90
2020,08,01,02,27,15.90
2020,08,01,02,28,15.90
2020,08,01,02,29,15.90
2020,08,01,02,30,16.00
2020,08,01,02,31,15.90
2020,08,01,02,32,15.90
2020,08,01,02,33,15.90
2020,08,01,02,34,15.90
2020,08,01,02,35,15.90
2020,08,01,02,36,15.90
2020,08,01,02,37,15.90
2020,08,01,02,38,15.90
2020,08,01,02,39,15.90
2020,08,01,02,40,15.90
2020,08,01,02,41,15.90
2020,08,01,02,42,15.90
2020,08,01,02,43,16.00
2020,08,01,02,44,16.00
2020,08,01,02,45,16.00
2020,08,01,02,46,16.00
2020,08,01,02,47,16.00
2020,08,01,02,48,16.00
2020,08,01,02,49,16.00
2020,08,01,02,50,16.00
2020,08,01,02,51,15.90
2020,08,01,02,52,15.90
2020,08,01,02,53,15.90
2020,08,01,02,54,15.90
2020,08,01,02,55,15.90
2020,08,01,02,56,15.90
2020,08,01,02,57,15.90
2020,08,01,02,58,16.00
2020,08,01,02,59,16.00
2020,08,01,03,00,16.00
2020,08,01,03,01,16.00
2020,08,01,03,02,15.90
2020,08,01,03,03,15.90
2020,08,01,03,04,16.00
2020,08,01,03,05,16.00
2020,08,01,03,06,16.00
2020,08,01,03,07,16.00
2020,08,01,03,08,16.00
2020,08,01,03,09,16.00
2020,08,01,03,10,16.10
2020,08,01,03,11,16.10
2020,08,01,03,12,16.10
2020,08,01,03,13,16.10
2020,08,01,03,14,16.10
2020,08,01,03,15,16.10
2020,08,01,03,16,16.20
2020,08,01,03,17,16.20
2020,08,01,03,18,16.20
2020,08,01,03,19,16.20
2020,08,01,03,20,16.20
2020,08,01,03,21,16.20
2020,08,01,03,22,16.20
2020,08,01,03,23,16.20
2020,08,01,03,24,16.20
2020,08,01,03,25,16.10
2020,08,01,03,26,16.10
2020,08,01,03,27,16.10
2020,08,01,03,28,16.00
2020,08,01,03,29,16.00
2020,08,01,03,30,15.90
2020,08,01,03,31,15.80
2020,08,01,03,32,15.80
2020,08,01,03,33,15.70
2020,08,01,03,34,15.70
2020,08,01,03,35,15.60
2020,08,01,03,36,15.50
2020,08,01,03,37,15.50
2020,08,01,03,38,15.40
2020,08,01,03,39,15.30
2020,08,01,03,40,15.30
2020,08,01,03,41,15.20
2020,08,01,03,42,15.20
2020,08,01,03,43,15.10
2020,08,01,03,44,15.10
2020,08,01,03,45,15.00
2020,08,01,03,46,15.00
2020,08,01,03,47,14.90
2020,08,01,03,48,14.90
2020,08,01,03,49,14.90
2020,08,01,03,50,14.80
2020,08,01,03,51,14.80
2020,08,01,03,52,14.80
2020,08,01,03,53,14.80
2020,08,01,03,54,14.80
2020,08,01,03,55,14.70
2020,08,01,03,56,14.70
2020,08,01,03,57,14.60
2020,08,01,03,58,14.60
2020,08,01,03,59,14.60
2020,08,01,04,00,14.60
2020,08,01,04,01,14.50
2020,08,01,04,02,14.50
2020,08,01,04,03,14.50
2020,08,01,04,04,14.50
2020,08,01,04,05,14.40
2020,08,01,04,06,14.40
2020,08,01,04,07,14.40
2020,08,01,04,08,14.40
2020,08,01,04,09,14.30
2020,08,01,04,10,14.30
2020,08,01,04,11,14.30
2020,08,01,04,12,14.20
2020,08,01,04,13,14.20
2020,08,01,04,14,14.20
2020,08,01,04,15,14.20
2020,08,01,04,16,14.20
2020,08,01,04,17,14.30
2020,08,01,04,18,14.30
2020,08,01,04,19,14.30
2020,08,01,04,20,14.30
2020,08,01,04,21,14.30
2020,08,01,04,22,14.30
2020,08,01,04,23,14.30
2020,08,01,04,24,14.20
2020,08,01,04,25,14.20
2020,08,01,04,26,14.20
2020,08,01,04,27,14.20
2020,08,01,04,28,14.20
2020,08,01,04,29,14.10
2020,08,01,04,30,14.10
2020,08,01,04,31,14.10
2020,08,01,04,32,14.00
2020,08,01,04,33,14.00
2020,08,01,04,34,14.00
2020,08,01,04,35,14.00
2020,08,01,04,36,13.90
2020,08,01,04,37,13.90
2020,08,01,04,38,13.90
2020,08,01,04,39,13.90
2020,08,01,04,40,13.90
2020,08,01,04,41,13.90
2020,08,01,04,42,13.80
2020,08,01,04,43,13.80
2020,08,01,04,44,13.80
2020,08,01,04,45,13.80
2020,08,01,04,46,13.80
2020,08,01,04,47,13.80
2020,08,01,04,48,13.80
2020,08,01,04,49,13.70
2020,08,01,04,50,13.70
2020,08,01,04,51,13.70
2020,08,01,04,52,13.70
2020,08,01,04,53,13.70
2020,08,01,04,54,13.70
2020,08,01,04,55,13.70
2020,08,01,04,56,13.60
2020,08,01,04,57,13.60
2020,08,01,04,58,13.60
2020,08,01,04,59,13.60
2020,08,01,05,00,13.60
2020,08,01,05,01,13.60
2020,08,01,05,02,13.50
2020,08,01,05,03,13.50
2020,08,01,05,04,13.50
2020,08,01,05,05,13.50
2020,08,01,05,06,13.50
2020,08,01,05,07,13.50
2020,08,01,05,08,13.50
2020,08,01,05,09,13.50
2020,08,01,05,10,13.50
2020,08,01,05,11,13.40
2020,08,01,05,12,13.40
2020,08,01,05,13,13.40
2020,08,01,05,14,13.40
2020,08,01,05,15,13.40
2020,08,01,05,16,13.40
2020,08,01,05,17,13.40
2020,08,01,05,18,13.40
2020,08,01,05,19,13.40
2020,08,01,05,20,13.30
2020,08,01,05,21,13.40
2020,08,01,05,22,13.30
2020,08,01,05,23,13.30
2020,08,01,05,24,13.30
2020,08,01,05,25,13.30
2020,08,01,05,26,13.30
2020,08,01,05,27,13.30
2020,08,01,05,28,13.30
2020,08,01,05,29,13.30
2020,08,01,05,30,13.30
2020,08,01,05,31,13.30
2020,08,01,05,32,13.30
2020,08,01,05,33,13.30
2020,08,01,05,34,13.40
2020,08,01,05,35,13.40
2020,08,01,05,36,13.40
2020,08,01,05,37,13.40
2020,08,01,05,38,13.40
2020,08,01,05,39,13.40
2020,08,01,05,40,13.40
2020,08,01,05,41,13.40
2020,08,01,05,42,13.40
2020,08,01,05,43,13.40
2020,08,01,05,44,13.40
2020,08,01,05,45,13.40
2020,08,01,05,46,13.40
2020,08,01,05,47,13.40
2020,08,01,05,48,13.40
2020,08,01,05,49,13.40
2020,08,01,05,50,13.50
2020,08,01,05,51,13.50
2020,08,01,05,52,13.60
2020,08,01,05,53,13.60
2020,08,01,05,54,13.60
2020,08,01,05,55,13.60
2020,08,01,05,56,13.60
2020,08,01,05,57,13.50
2020,08,01,05,58,13.50
2020,08,01,05,59,13.50
2020,08,01,06,00,13.40
2020,08,01,06,01,13.40
2020,08,01,06,02,13.40
2020,08,01,06,03,13.40
2020,08,01,06,04,13.40
2020,08,01,06,05,13.40
2020,08,01,06,06,13.40
2020,08,01,06,07,13.40
2020,08,01,06,08,13.40
2020,08,01,06,09,13.40
2020,08,01,06,10,13.30
2020,08,01,06,11,13.30
2020,08,01,06,12,13.30
2020,08,01,06,13,13.30
2020,08,01,06,14,13.30
2020,08,01,06,15,13.30
2020,08,01,06,16,13.30
2020,08,01,06,17,13.30
2020,08,01,06,18,13.40
2020,08,01,06,19,13.40
2020,08,01,06,20,13.40
2020,08,01,06,21,13.40
2020,08,01,06,22,13.50
2020,08,01,06,23,13.50
2020,08,01,06,24,13.50
2020,08,01,06,25,13.60
2020,08,01,06,26,13.50
2020,08,01,06,27,13.50
2020,08,01,06,28,13.50
2020,08,01,06,29,13.40
2020,08,01,06,30,13.40
2020,08,01,06,31,13.40
2020,08,01,06,32,13.40
2020,08,01,06,33,13.40
2020,08,01,06,34,13.30
2020,08,01,06,35,13.40
2020,08,01,06,36,13.30
2020,08,01,06,37,13.30
2020,08,01,06,38,13.30
2020,08,01,06,39,13.30
2020,08,01,06,40,13.30
2020,08,01,06,41,13.30
2020,08,01,06,42,13.30
2020,08,01,06,43,13.30
2020,08,01,06,44,13.30
2020,08,01,06,45,13.30
2020,08,01,06,46,13.40
2020,08,01,06,47,13.40
2020,08,01,06,48,13.50
2020,08,01,06,49,13.60
2020,08,01,06,50,13.70
2020,08,01,06,51,13.80
2020,08,01,06,52,13.90
2020,08,01,06,53,14.00
2020,08,01,06,54,14.10
2020,08,01,06,55,14.20
2020,08,01,06,56,14.30
2020,08,01,06,57,14.30
2020,08,01,06,58,14.30
2020,08,01,06,59,14.40
2020,08,01,07,00,14.40
2020,08,01,07,01,14.50
2020,08,01,07,02,14.50
2020,08,01,07,03,14.50
2020,08,01,07,04,14.60
2020,08,01,07,05,14.60
2020,08,01,07,06,14.60
2020,08,01,07,07,14.70
2020,08,01,07,08,14.70
2020,08,01,07,09,14.80
2020,08,01,07,10,14.80
2020,08,01,07,11,14.90
2020,08,01,07,12,14.90
2020,08,01,07,13,15.00
2020,08,01,07,14,15.00
2020,08,01,07,15,15.10
2020,08,01,07,16,15.10
2020,08,01,07,17,15.20
2020,08,01,07,18,15.30
2020,08,01,07,19,15.30
2020,08,01,07,20,15.40
2020,08,01,07,21,15.40
2020,08,01,07,22,15.50
2020,08,01,07,23,15.50
2020,08,01,07,24,15.60
2020,08,01,07,25,15.60
2020,08,01,07,26,15.70
2020,08,01,07,27,15.80
2020,08,01,07,28,15.80
2020,08,01,07,29,15.90
2020,08,01,07,30,16.00
2020,08,01,07,31,16.00
2020,08,01,07,32,16.10
2020,08,01,07,33,16.10
2020,08,01,07,34,16.30
2020,08,01,07,35,16.40
2020,08,01,07,36,16.50
2020,08,01,07,37,16.60
2020,08,01,07,38,16.70
2020,08,01,07,39,16.80
2020,08,01,07,40,16.80
2020,08,01,07,41,16.90
2020,08,01,07,42,17.00
2020,08,01,07,43,17.10
2020,08,01,07,44,17.10
2020,08,01,07,45,17.20
2020,08,01,07,46,17.20
2020,08,01,07,47,17.30
2020,08,01,07,48,17.30
2020,08,01,07,49,17.30
2020,08,01,07,50,17.40
2020,08,01,07,51,17.50
2020,08,01,07,52,17.50
2020,08,01,07,53,17.60
2020,08,01,07,54,17.70
2020,08,01,07,55,17.70
2020,08,01,07,56,17.80
2020,08,01,07,57,17.80
2020,08,01,07,58,17.80
2020,08,01,07,59,17.90
2020,08,01,08,00,17.90
2020,08,01,08,01,18.00
2020,08,01,08,02,18.10
2020,08,01,08,03,18.20
2020,08,01,08,04,18.20
2020,08,01,08,05,18.30
2020,08,01,08,06,18.40
2020,08,01,08,07,18.40
2020,08,01,08,08,18.50
2020,08,01,08,09,18.50
2020,08,01,08,10,18.60
2020,08,01,08,11,18.70
2020,08,01,08,12,18.70
2020,08,01,08,13,18.80
2020,08,01,08,14,18.90
2020,08,01,08,15,19.00
2020,08,01,08,16,19.10
2020,08,01,08,17,19.10
2020,08,01,08,18,19.20
2020,08,01,08,19,19.20
2020,08,01,08,20,19.30
2020,08,01,08,21,19.30
2020,08,01,08,22,19.40
2020,08,01,08,23,19.40
2020,08,01,08,24,19.60
2020,08,01,08,25,19.60
2020,08,01,08,26,19.70
2020,08,01,08,27,19.80
2020,08,01,08,28,19.90
2020,08,01,08,29,20.00
2020,08,01,08,30,20.10
2020,08,01,08,31,20.10
2020,08,01,08,32,20.20
2020,08,01,08,33,20.20
2020,08,01,08,34,20.20
2020,08,01,08,35,20.20
2020,08,01,08,36,20.20
2020,08,01,08,37,20.30
2020,08,01,08,38,20.30
2020,08,01,08,39,20.40
2020,08,01,08,40,20.40
2020,08,01,08,41,20.50
2020,08,01,08,42,20.60
2020,08,01,08,43,20.70
2020,08,01,08,44,20.70
2020,08,01,08,45,20.70
2020,08,01,08,46,20.70
2020,08,01,08,47,20.70
2020,08,01,08,48,20.80
2020,08,01,08,49,20.80
2020,08,01,08,50,20.90
2020,08,01,08,51,21.00
2020,08,01,08,52,21.00
2020,08,01,08,53,21.10
2020,08,01,08,54,21.10
2020,08,01,08,55,21.20
2020,08,01,08,56,21.30
2020,08,01,08,57,21.30
2020,08,01,08,58,21.40
2020,08,01,08,59,21.40
2020,08,01,09,00,21.50
2020,08,01,09,01,21.50
2020,08,01,09,02,21.50
2020,08,01,09,03,21.40
2020,08,01,09,04,21.40
2020,08,01,09,05,21.30
2020,08,01,09,06,21.30
2020,08,01,09,07,21.20
2020,08,01,09,08,21.30
2020,08,01,09,09,21.20
2020,08,01,09,10,21.20
2020,08,01,09,11,21.30
2020,08,01,09,12,21.30
2020,08,01,09,13,21.30
2020,08,01,09,14,21.30
2020,08,01,09,15,21.40
2020,08,01,09,16,21.40
2020,08,01,09,17,21.40
2020,08,01,09,18,21.40
2020,08,01,09,19,21.30
2020,08,01,09,20,21.40
2020,08,01,09,21,21.40
2020,08,01,09,22,21.40
2020,08,01,09,23,21.40
2020,08,01,09,24,21.40
2020,08,01,09,25,21.30
2020,08,01,09,26,21.30
2020,08,01,09,27,21.30
2020,08,01,09,28,21.30
2020,08,01,09,29,21.30
2020,08,01,09,30,21.20
2020,08,01,09,31,21.20
2020,08,01,09,32,21.10
2020,08,01,09,33,21.10
2020,08,01,09,34,21.00
2020,08,01,09,35,21.00
2020,08,01,09,36,21.00
2020,08,01,09,37,20.90
2020,08,01,09,38,20.90
2020,08,01,09,39,20.90
2020,08,01,09,40,21.00
2020,08,01,09,41,21.00
2020,08,01,09,42,21.00
2020,08,01,09,43,21.00
2020,08,01,09,44,21.10
2020,08,01,09,45,21.20
2020,08,01,09,46,21.20
2020,08,01,09,47,21.30
2020,08,01,09,48,21.40
2020,08,01,09,49,21.50
2020,08,01,09,50,21.50
2020,08,01,09,51,21.60
2020,08,01,09,52,21.60
2020,08,01,09,53,21.40
2020,08,01,09,54,21.40
2020,08,01,09,55,21.30
2020,08,01,09,56,21.30
2020,08,01,09,57,21.20
2020,08,01,09,58,21.30
2020,08,01,09,59,21.30
2020,08,01,10,00,21.40
2020,08,01,10,01,21.40
2020,08,01,10,02,21.40
2020,08,01,10,03,21.50
2020,08,01,10,04,21.60
2020,08,01,10,05,21.60
2020,08,01,10,06,21.60
2020,08,01,10,07,21.60
2020,08,01,10,08,21.60
2020,08,01,10,09,21.60
2020,08,01,10,10,21.40
2020,08,01,10,11,21.20
2020,08,01,10,12,21.20
2020,08,01,10,13,21.10
2020,08,01,10,14,21.00
2020,08,01,10,15,20.90
2020,08,01,10,16,20.90
2020,08,01,10,17,21.00
2020,08,01,10,18,21.00
2020,08,01,10,19,21.10
2020,08,01,10,20,21.10
2020,08,01,10,21,21.10
2020,08,01,10,22,21.10
2020,08,01,10,23,21.10
2020,08,01,10,24,21.20
2020,08,01,10,25,21.20
2020,08,01,10,26,21.20
2020,08,01,10,27,21.20
2020,08,01,10,28,21.30
2020,08,01,10,29,21.30
2020,08,01,10,30,21.20
2020,08,01,10,31,21.20
2020,08,01,10,32,21.20
2020,08,01,10,33,21.20
2020,08,01,10,34,21.20
2020,08,01,10,35,21.30
2020,08,01,10,36,21.30
2020,08,01,10,37,21.40
2020,08,01,10,38,21.50
2020,08,01,10,39,21.60
2020,08,01,10,40,21.70
2020,08,01,10,41,21.80
2020,08,01,10,42,21.90
2020,08,01,10,43,21.90
2020,08,01,10,44,22.00
2020,08,01,10,45,22.00
2020,08,01,10,46,22.00
2020,08,01,10,47,21.90
2020,08,01,10,48,21.90
2020,08,01,10,49,21.80
2020,08,01,10,50,21.80
2020,08,01,10,51,21.90
2020,08,01,10,52,21.90
2020,08,01,10,53,21.90
2020,08,01,10,54,21.90
2020,08,01,10,55,21.90
2020,08,01,10,56,21.90
2020,08,01,10,57,21.80
2020,08,01,10,58,21.70
2020,08,01,10,59,21.60
2020,08,01,11,00,21.50
2020,08,01,11,01,21.60
2020,08,01,11,02,21.60
2020,08,01,11,03,21.70
2020,08,01,11,04,21.80
2020,08,01,11,05,21.90
2020,08,01,11,06,21.90
2020,08,01,11,07,21.90
2020,08,01,11,08,21.80
2020,08,01,11,09,21.80
2020,08,01,11,10,21.90
2020,08,01,11,11,21.80
2020,08,01,11,12,21.80
2020,08,01,11,13,21.70
2020,08,01,11,14,21.70
2020,08,01,11,15,21.80
2020,08,01,11,16,21.80
2020,08,01,11,17,21.70
2020,08,01,11,18,21.60
2020,08,01,11,19,21.60
2020,08,01,11,20,21.60
2020,08,01,11,21,21.60
2020,08,01,11,22,21.60
2020,08,01,11,23,21.60
2020,08,01,11,24,21.60
2020,08,01,11,25,21.60
2020,08,01,11,26,21.60
2020,08,01,11,27,21.60
2020,08,01,11,28,21.60
2020,08,01,11,29,21.70
2020,08,01,11,30,21.70
2020,08,01,11,31,21.80
2020,08,01,11,32,21.80
2020,08,01,11,33,21.80
2020,08,01,11,34,21.80
2020,08,01,11,35,21.70
2020,08,01,11,36,21.70
2020,08,01,11,37,21.70
2020,08,01,11,38,21.70
2020,08,01,11,39,21.70
2020,08,01,11,40,21.70
2020,08,01,11,41,21.80
2020,08,01,11,42,21.80
2020,08,01,11,43,21.90
2020,08,01,11,44,21.90
2020,08,01,11,45,21.90
2020,08,01,11,46,21.90
2020,08,01,11,47,22.00
2020,08,01,11,48,22.10
2020,08,01,11,49,22.10
2020,08,01,11,50,22.20
2020,08,01,11,51,22.20
2020,08,01,11,52,22.30
2020,08,01,11,53,22.30
2020,08,01,11,54,22.30
2020,08,01,11,55,22.30
2020,08,01,11,56,22.40
2020,08,01,11,57,22.40
2020,08,01,11,58,22.40
2020,08,01,11,59,22.30
2020,08,01,12,00,22.30
2020,08,01,12,01,22.30
2020,08,01,12,02,22.30
2020,08,01,12,03,22.30
2020,08,01,12,04,22.40
2020,08,01,12,05,22.40
2020,08,01,12,06,22.50
2020,08,01,12,07,22.60
2020,08,01,12,08,22.70
2020,08,01,12,09,22.70
2020,08,01,12,10,22.70
2020,08,01,12,11,22.70
2020,08,01,12,12,22.70
2020,08,01,12,13,22.70
2020,08,01,12,14,22.70
2020,08,01,12,15,22.70
2020,08,01,12,16,22.80
2020,08,01,12,17,22.90
2020,08,01,12,18,23.00
2020,08,01,12,19,23.00
2020,08,01,12,20,23.10
2020,08,01,12,21,23.10
2020,08,01,12,22,23.10
2020,08,01,12,23,23.00
2020,08,01,12,24,22.90
2020,08,01,12,25,22.80
2020,08,01,12,26,22.80
2020,08,01,12,27,22.90
2020,08,01,12,28,22.90
2020,08,01,12,29,22.90
2020,08,01,12,30,22.90
2020,08,01,12,31,22.80
2020,08,01,12,32,22.80
2020,08,01,12,33,22.90
2020,08,01,12,34,22.90
2020,08,01,12,35,23.00
2020,08,01,12,36,23.20
2020,08,01,12,37,23.20
2020,08,01,12,38,23.30
2020,08,01,12,39,23.30
2020,08,01,12,40,23.40
2020,08,01,12,41,23.50
2020,08,01,12,42,23.50
2020,08,01,12,43,23.60
2020,08,01,12,44,23.60
2020,08,01,12,45,23.70
2020,08,01,12,46,23.80
2020,08,01,12,47,23.80
2020,08,01,12,48,23.90
2020,08,01,12,49,23.90
2020,08,01,12,50,23.90
2020,08,01,12,51,24.00
2020,08,01,12,52,23.90
2020,08,01,12,53,23.80
2020,08,01,12,54,23.80
2020,08,01,12,55,23.80
2020,08,01,12,56,23.80
2020,08,01,12,57,23.70
2020,08,01,12,58,23.70
2020,08,01,12,59,23.70
2020,08,01,13,00,23.70
2020,08,01,13,01,23.70
2020,08,01,13,02,23.70
2020,08,01,13,03,23.60
2020,08,01,13,04,23.60
2020,08,01,13,05,23.50
2020,08,01,13,06,23.50
2020,08,01,13,07,23.60
2020,08,01,13,08,23.70
2020,08,01,13,09,23.70
2020,08,01,13,10,23.70
2020,08,01,13,11,23.70
2020,08,01,13,12,23.70
2020,08,01,13,13,23.80
2020,08,01,13,14,23.80
2020,08,01,13,15,23.80
2020,08,01,13,16,23.70
2020,08,01,13,17,23.50
2020,08,01,13,18,23.50
2020,08,01,13,19,23.50
2020,08,01,13,20,23.60
2020,08,01,13,21,23.70
2020,08,01,13,22,23.80
2020,08,01,13,23,23.80
2020,08,01,13,24,23.70
2020,08,01,13,25,23.70
2020,08,01,13,26,23.70
2020,08,01,13,27,23.80
2020,08,01,13,28,23.90
2020,08,01,13,29,24.00
2020,08,01,13,30,24.20
2020,08,01,13,31,24.30
2020,08,01,13,32,24.50
2020,08,01,13,33,24.60
2020,08,01,13,34,24.70
2020,08,01,13,35,24.70
2020,08,01,13,36,24.70
2020,08,01,13,37,24.80
2020,08,01,13,38,24.80
2020,08,01,13,39,24.80
2020,08,01,13,40,24.90
2020,08,01,13,41,24.90
2020,08,01,13,42,25.00
2020,08,01,13,43,25.00
2020,08,01,13,44,25.10
2020,08,01,13,45,25.10
2020,08,01,13,46,25.20
2020,08,01,13,47,25.20
2020,08,01,13,48,25.30
2020,08,01,13,49,25.30
2020,08,01,13,50,25.30
2020,08,01,13,51,25.40
2020,08,01,13,52,25.30
2020,08,01,13,53,25.40
2020,08,01,13,54,25.40
2020,08,01,13,55,25.50
2020,08,01,13,56,25.60
2020,08,01,13,57,25.60
2020,08,01,13,58,25.60
2020,08,01,13,59,25.60
2020,08,01,14,00,25.70
2020,08,01,14,01,25.70
2020,08,01,14,02,25.60
2020,08,01,14,03,25.50
2020,08,01,14,04,25.40
2020,08,01,14,05,25.30
2020,08,01,14,06,25.30
2020,08,01,14,07,25.20
2020,08,01,14,08,25.20
2020,08,01,14,09,25.20
2020,08,01,14,10,25.20
2020,08,01,14,11,25.30
2020,08,01,14,12,25.30
2020,08,01,14,13,25.40
2020,08,01,14,14,25.50
2020,08,01,14,15,25.50
2020,08,01,14,16,25.60
2020,08,01,14,17,25.60
2020,08,01,14,18,25.60
2020,08,01,14,19,25.60
2020,08,01,14,20,25.70
2020,08,01,14,21,25.80
2020,08,01,14,22,25.90
2020,08,01,14,23,25.80
2020,08,01,14,24,25.80
2020,08,01,14,25,25.70
2020,08,01,14,26,25.70
2020,08,01,14,27,25.70
2020,08,01,14,28,25.70
2020,08,01,14,29,25.80
2020,08,01,14,30,25.80
2020,08,01,14,31,25.90
2020,08,01,14,32,26.00
2020,08,01,14,33,26.00
2020,08,01,14,34,26.00
2020,08,01,14,35,26.10
2020,08,01,14,36,26.10
2020,08,01,14,37,26.10
2020,08,01,14,38,26.00
2020,08,01,14,39,26.00
2020,08,01,14,40,25.90
2020,08,01,14,41,25.90
2020,08,01,14,42,25.90
2020,08,01,14,43,25.90
2020,08,01,14,44,25.90
2020,08,01,14,45,25.80
2020,08,01,14,46,25.80
2020,08,01,14,47,25.70
2020,08,01,14,48,25.60
2020,08,01,14,49,25.60
2020,08,01,14,50,25.60
2020,08,01,14,51,25.60
2020,08,01,14,52,25.60
2020,08,01,14,53,25.60
2020,08,01,14,54,25.60
2020,08,01,14,55,25.60
2020,08,01,14,56,25.60
2020,08,01,14,57,25.50
2020,08,01,14,58,25.50
2020,08,01,14,59,25.40
2020,08,01,15,00,25.40
2020,08,01,15,01,25.40
2020,08,01,15,02,25.40
2020,08,01,15,03,25.50
2020,08,01,15,04,25.50
2020,08,01,15,05,25.60
2020,08,01,15,06,25.60
2020,08,01,15,07,25.70
2020,08,01,15,08,25.70
2020,08,01,15,09,25.60
2020,08,01,15,10,25.60
2020,08,01,15,11,25.50
2020,08,01,15,12,25.50
2020,08,01,15,13,25.40
2020,08,01,15,14,25.40
2020,08,01,15,15,25.40
2020,08,01,15,16,25.40
2020,08,01,15,17,25.40
2020,08,01,15,18,25.40
2020,08,01,15,19,25.40
2020,08,01,15,20,25.50
2020,08,01,15,21,25.50
2020,08,01,15,22,25.60
2020,08,01,15,23,25.70
2020,08,01,15,24,25.80
2020,08,01,15,25,25.80
2020,08,01,15,26,25.90
2020,08,01,15,27,26.00
2020,08,01,15,28,26.00
2020,08,01,15,29,26.00
2020,08,01,15,30,26.00
2020,08,01,15,31,25.90
2020,08,01,15,32,25.90
2020,08,01,15,33,25.90
2020,08,01,15,34,25.90
2020,08,01,15,35,25.90
2020,08,01,15,36,25.90
2020,08,01,15,37,25.90
2020,08,01,15,38,25.90
2020,08,01,15,39,25.90
2020,08,01,15,40,25.80
2020,08,01,15,41,25.80
2020,08,01,15,42,25.80
2020,08,01,15,43,25.80
2020,08,01,15,44,25.80
2020,08,01,15,45,25.90
2020,08,01,15,46,25.90
2020,08,01,15,47,25.90
2020,08,01,15,48,26.00
2020,08,01,15,49,26.00
2020,08,01,15,50,26.00
2020,08,01,15,51,26.00
2020,08,01,15,52,25.90
2020,08,01,15,53,25.90
2020,08,01,15,54,25.90
2020,08,01,15,55,25.80
2020,08,01,15,56,25.80
2020,08,01,15,57,25.70
2020,08,01,15,58,25.70
2020,08,01,15,59,25.70
2020,08,01,16,00,25.70
2020,08,01,16,01,25.70
2020,08,01,16,02,25.70
2020,08,01,16,03,25.80
2020,08,01,16,04,25.90
2020,08,01,16,05,26.00
2020,08,01,16,06,26.00
2020,08,01,16,07,26.10
2020,08,01,16,08,26.10
2020,08,01,16,09,26.20
2020,08,01,16,10,26.20
2020,08,01,16,11,26.20
2020,08,01,16,12,26.20
2020,08,01,16,13,26.20
2020,08,01,16,14,26.20
2020,08,01,16,15,26.20
2020,08,01,16,16,26.20
2020,08,01,16,17,26.20
2020,08,01,16,18,26.20
2020,08,01,16,19,26.20
2020,08,01,16,20,26.20
2020,08,01,16,21,26.10
2020,08,01,16,22,26.10
2020,08,01,16,23,26.10
2020,08,01,16,24,26.10
2020,08,01,16,25,26.10
2020,08,01,16,26,26.20
2020,08,01,16,27,26.20
2020,08,01,16,28,26.20
2020,08,01,16,29,26.20
2020,08,01,16,30,26.20
2020,08,01,16,31,26.20
2020,08,01,16,32,26.20
2020,08,01,16,33,26.10
2020,08,01,16,34,26.10
2020,08,01,16,35,26.10
2020,08,01,16,36,26.00
2020,08,01,16,37,26.00
2020,08,01,16,38,25.90
2020,08,01,16,39,25.90
2020,08,01,16,40,25.90
2020,08,01,16,41,25.90
2020,08,01,16,42,25.90
2020,08,01,16,43,26.00
2020,08,01,16,44,26.00
2020,08,01,16,45,26.00
2020,08,01,16,46,26.00
2020,08,01,16,47,26.00
2020,08,01,16,48,26.00
2020,08,01,16,49,25.90
2020,08,01,16,50,25.80
2020,08,01,16,51,25.70
2020,08,01,16,52,25.70
2020,08,01,16,53,25.60
2020,08,01,16,54,25.60
2020,08,01,16,55,25.60
2020,08,01,16,56,25.60
2020,08,01,16,57,25.70
2020,08,01,16,58,25.80
2020,08,01,16,59,25.80
2020,08,01,17,00,25.90
2020,08,01,17,01,26.00
2020,08,01,17,02,26.10
2020,08,01,17,03,26.30
2020,08,01,17,04,26.40
2020,08,01,17,05,26.50
2020,08,01,17,06,26.50
2020,08,01,17,07,26.60
2020,08,01,17,08,26.60
2020,08,01,17,09,26.60
2020,08,01,17,10,26.60
2020,08,01,17,11,26.60
2020,08,01,17,12,26.70
2020,08,01,17,13,26.70
2020,08,01,17,14,26.70
2020,08,01,17,15,26.70
2020,08,01,17,16,26.70
2020,08,01,17,17,26.70
2020,08,01,17,18,26.70
2020,08,01,17,19,26.60